Regional Weather Roundup
Issued by NWS

Home | Current Version | Previous Version | Graphics & Text | Print | Product List | Glossary On
Versions: 1 2 3 4 5 6 7 8 9 10 11 12 13 14 15 16 17 18 19 20 21 22 23 24 25 26 27 28 29 30 31 32 33 34 35 36 37 38 39 40 41 42 43 44 45 46 47 48 49 50
000
ASUS43 KMKX 191100
RWRWI

WISCONSIN REGIONAL WEATHER ROUNDUP
NATIONAL WEATHER SERVICE MILWAUKEE/SULLIVAN WI
600 AM CDT FRI SEP 19 2014

NOTE: "FAIR" INDICATES FEW OR NO CLOUDS BELOW 12,000 FEET WITH NO
SIGNIFICANT WEATHER AND/OR OBSTRUCTIONS TO VISIBILITY.

WIZ001-002-006>008-014>016-023>028-191200-
NORTHWEST WISCONSIN

CITY           SKY/WX    TMP DP  RH WIND       PRES   REMARKS
SUPERIOR ARPT    N/A     46  46 100 CALM      29.92S FOG
ASHLAND        CLOUDY    55  51  86 S10       29.95F
HAYWARD        MOCLDY    55  51  86 S8        29.98S
SIREN          MOCLDY    57  52  82 S9        29.94F
RICE LAKE      MOCLDY    51  50  93 SE6       30.01R FOG
LADYSMITH      MOCLDY    53  51  94 S6        30.03F
EAU CLAIRE     NOT AVBL
MENOMONIE      SUNNY     52  51  97 SE7       30.00S FOG
NEW RICHMOND   PTCLDY    56  50  80 S10G16    29.97S
OSCEOLA        MOCLDY    58  52  81 S10       29.98F
$$

WIZ003>005-009-010-017-018-191200-
NORTH CENTRAL WISCONSIN

CITY           SKY/WX    TMP DP  RH WIND       PRES   REMARKS
WOODRUFF       CLOUDY    53  51  92 S15G23    30.05F FOG
RHINELANDER    MOCLDY    50  49  96 S6        30.08S FOG
EAGLE RIVER    CLOUDY    50  50 100 S7        30.06F FOG
LAND O LAKES   CLOUDY    51  50  97 S7        30.06F FOG
PHILLIPS       MOCLDY    51  50  97 S8        30.02F
TOMAHAWK       CLOUDY    50  49  97 CALM      30.07F FOG
MEDFORD        MOCLDY    49  49  99 SE10      30.05F FOG
MERRILL        MOCLDY    50  50 100 S3        30.08F FOG
$$

WIZ029-030-035-036-043>047-191200-
CENTRAL WISCONSIN

CITY           SKY/WX    TMP DP  RH WIND       PRES   REMARKS
WAUSAU         PTCLDY    49  48  97 SE6       30.08S FOG
MOSINEE        MOCLDY    48  48 100 SE5       30.10R FOG
MARSHFIELD     MOCLDY    50  49  96 S9        30.07F FOG
STEVENS POINT  PTCLDY    46  46  99 CALM      30.11R FOG
WAUPACA        FOG       49  48  96 S3        30.14R VSB 1/4
WAUTOMA        NOT AVBL
WISC RAPIDS    MOCLDY    49  48  97 SE5       30.11R FOG
CAMP DOUGLAS   PTCLDY    45  45 100 E8        30.09S FOG
$$

WIZ011>013-019>022-031-037>040-048>050-191200-
NORTHEAST WISCONSIN

CITY           SKY/WX    TMP DP  RH WIND       PRES   REMARKS
ANTIGO         FOG       47  47 100 S8        30.10F VSB 1/4
STURGEON BAY   CLOUDY    55  52  88 S10       30.16R
GREEN BAY      CLOUDY    51  51 100 S6        30.15R FOG
MANITOWOC      NOT AVBL
APPLETON       FOG       52  52 100 S7        30.14R VSB 1/2
CLINTONVILLE   FOG       45  45 100 SE6       30.12R VSB 1/2
OSHKOSH        CLOUDY    54  54 100 S10       30.13R FOG
$$

WIZ032>034-041-042-053>061-191200-
SOUTHWEST WISCONSIN

CITY           SKY/WX    TMP DP  RH WIND       PRES   REMARKS
LA CROSSE      PTCLDY    57  51  80 S9        30.04S
SPARTA         MOCLDY    55  49  81 S9        30.07S
VIROQUA        FAIR      51  51 100 SE8       30.07S
BOSCOBEL       PTCLDY    53  49  86 SW3       30.09S
PRAIRIE DU CHI PTCLDY    53  50  91 CALM      30.08S FOG
PLATTEVILLE    CLOUDY    51  50  97 E5        30.10F VSB 1/4
$$

WIZ056-057-062-063-064-067-068-191200-
SOUTH CENTRAL WISCONSIN

CITY           SKY/WX    TMP DP  RH WIND       PRES   REMARKS
BARABOO/DELLS  CLOUDY    50  49  95 S8        30.10F FOG
LONE ROCK      NOT AVBL
WATERTOWN      FOG       53  53 100 CALM      30.13F VSB 1/2
MADISON        CLOUDY    55  53  93 S12       30.12F FOG
MIDDLETON      CLOUDY    55  55  99 SE8       30.12F
MONROE         CLOUDY    52  52 100 SE7       30.12F FOG
JANESVILLE     CLOUDY    57  55  94 SE8       30.13S FOG
$$

WIZ051-052-058>065-066-070>072-191200-
SOUTHEAST WISCONSIN

CITY           SKY/WX    TMP DP  RH WIND       PRES   REMARKS
MILWAUKEE      CLEAR     56  53  90 S7        30.15S FOG
WAUKESHA       FOG       52  52 100 SE3       30.15F VSB 1/4
MILWAUKEE/TIMM CLEAR     46  45  93 CALM      30.15F FOG
RACINE         CLEAR     58  54  86 S7        30.16F
BURLINGTON     FOG       50  50 100 CALM      30.15F VSB 1/4
KENOSHA        CLEAR     52  51  97 S3        30.16S
FOND DU LAC    CLOUDY    55  52  89 S6        30.13S FOG
SHEBOYGAN      CLOUDY    48  47  96 CALM      30.15R FOG
WEST BEND      FOG       46  45  93 CALM      30.14F VSB 1
JUNEAU         FOG       54  54 100 SE7       30.14F VSB 1/4
$$

LSZ147-162-191200-
LAKE SUPERIOR

STATION/POSITION TIME  TEMP    WIND        PRES    WAVE
                       AIR SEA DIR/SP/G            HT/PER
                 (UTC) (F)     (DEG/KT/KT) (MB)    (FT/S)
W MID LAKE BUOY  0950   53 48  190/ 14/ 17 1014.3F   1/ 2
DEVILS ISLAND    1000   55     200/ 11/ 15 1013.9F
PORT WING        1000   57     200/  6/  9 1013.5F
SAXON HARBOR     1040   58     190/  4/ 14 1014.2F
$$

LMZ867-665-643>646-191200-
LAKE MICHIGAN

STATION/POSITION TIME  TEMP    WIND        PRES    WAVE
                       AIR SEA DIR/SP/G            HT/PER
                 (UTC) (F)     (DEG/KT/KT) (MB)    (FT/S)
N MID LAKE BUOY  0950   56 58  190/ 17/ 21 1020.7F   3/ 4
NORTHPORT PIER   1000   54     150/  3/  6 1020.3F
SISTER BAY       1012   53     170/  8/ 12   N/A
KEWAUNEE LAKESHO 1000   52     180/  4/  5 1019.7F
SHEBOYGAN LAKESH 1000   56 52  160/ 13/ 13 1021.2F
PORT WASHINGTON  1040   57     240/  1/  3 1021.3F
ATWATER BUOY     1000   59     180/  4/  6 1021.9R
MILWAUKEE LAKESH 1000   59     190/  4/  5   N/A
S MID LAKE BUOY  0950   62 62  160/ 16/ 19 1021.4R   3/ 4
KENOSHA   LAKESH 1000   62     160/ 12/ 13 1020.7R
$$

TC  - TEMPERATURE IN CELSIUS
VSB - VISIBILITY IN STATUTE MILES
WCI - WIND CHILL INDEX
HX  - HEAT INDEX



USA.gov is the U.S. government's official web portal to all federal, state and local government web resources and services.